• In Deutschland
  • Länderverzeichnis
  • Für 7 Tage
  • Wassertemperatur
  • Satellitenkarten
  • Wetterkarte
  • Widgets
  • user-avatar
    Anmelden

    Stündliche Wetter Werl

    Heute, 18 Februar, Sonntag

    Zeit Temperatur Niederschläge Wind Luftdruck Luftfeuchtigkeit
    00:00 0°C° 0 mm 1 m/S 760 mmHg 87%
    01:00 0°C° 0 mm 1 m/S 760 mmHg 87%
    02:00 0°C° 0 mm 1 m/S 761 mmHg 86%
    03:00 0°C° 0 mm 1 m/S 761 mmHg 85%
    04:00 0°C° 0 mm 1 m/S 761 mmHg 84%
    05:00 0°C° 0 mm 1 m/S 761 mmHg 83%
    06:00 0°C° 0 mm 1 m/S 761 mmHg 82%
    07:00 0°C° 0 mm 1 m/S 761 mmHg 81%
    08:00 -1°C° 0 mm 2 m/S 761 mmHg 76%
    09:00 +1°C° 0 mm 2 m/S 761 mmHg 71%
    10:00 +2°C° 0 mm 2 m/S 761 mmHg 66%
    11:00 +3°C° 0 mm 2 m/S 761 mmHg 62%
    12:00 +4°C° 0 mm 2 m/S 761 mmHg 57%
    13:00 +6°C° 0 mm 2 m/S 761 mmHg 53%
    14:00 +6°C° 0 mm 2 m/S 760 mmHg 54%
    15:00 +6°C° 0 mm 2 m/S 760 mmHg 55%
    16:00 +6°C° 0 mm 2 m/S 760 mmHg 57%
    17:00 +4°C° 0 mm 2 m/S 760 mmHg 63%
    18:00 +3°C° 0 mm 2 m/S 760 mmHg 69%
    19:00 +2°C° 0 mm 2 m/S 760 mmHg 74%
    20:00 +1°C° 0 mm 2 m/S 760 mmHg 76%
    21:00 +1°C° 0 mm 2 m/S 760 mmHg 77%
    22:00 -1°C° 0 mm 2 m/S 760 mmHg 79%
    23:00 -1°C° 0 mm 2 m/S 760 mmHg 79%

    Morgen, 19 Februar, Montag

    Zeit Temperatur Niederschläge Wind Luftdruck Luftfeuchtigkeit
    00:00 -1°C° 0 mm 2 m/S 759 mmHg 79%
    01:00 -1°C° 0 mm 2 m/S 759 mmHg 79%
    02:00 -1°C° 0 mm 2 m/S 759 mmHg 79%
    03:00 +1°C° 0 mm 1 m/S 758 mmHg 79%
    04:00 +1°C° 0 mm 1 m/S 758 mmHg 79%
    05:00 +1°C° 0 mm 1 m/S 758 mmHg 79%
    06:00 +1°C° 0 mm 1 m/S 758 mmHg 78%
    07:00 +1°C° 0 mm 1 m/S 758 mmHg 78%
    08:00 +2°C° 0 mm 1 m/S 758 mmHg 74%
    09:00 +3°C° 0 mm 1 m/S 758 mmHg 71%
    10:00 +4°C° 0 mm 1 m/S 758 mmHg 67%
    11:00 +5°C° 0 mm 1 m/S 757 mmHg 62%
    12:00 +6°C° 0 mm 1 m/S 757 mmHg 57%
    13:00 +7°C° 0 mm 1 m/S 757 mmHg 52%
    14:00 +7°C° 0 mm 1 m/S 756 mmHg 53%
    15:00 +7°C° 0 mm 1 m/S 756 mmHg 54%
    16:00 +7°C° 0 mm 1 m/S 756 mmHg 54%
    17:00 +6°C° 0 mm 1 m/S 755 mmHg 59%
    18:00 +3°C° 0 mm 0 m/S 755 mmHg 63%
    19:00 +2°C° 0 mm 0 m/S 755 mmHg 67%
    20:00 +2°C° 0 mm 0 m/S 755 mmHg 68%
    21:00 +3°C° 0 mm 1 m/S 755 mmHg 68%
    22:00 +3°C° 0 mm 1 m/S 755 mmHg 69%
    23:00 +3°C° 0 mm 1 m/S 755 mmHg 70%

    übermorgen, 20 Februar, Dienstag

    Zeit Temperatur Niederschläge Wind Luftdruck Luftfeuchtigkeit
    00:00 +3°C° 0 mm 1 m/S 755 mmHg 70%
    01:00 +3°C° 0 mm 1 m/S 754 mmHg 71%
    02:00 +2°C° 0 mm 1 m/S 754 mmHg 72%
    03:00 +2°C° 0 mm 1 m/S 754 mmHg 73%
    04:00 +2°C° 0 mm 1 m/S 753 mmHg 74%
    05:00 +2°C° 0,1 mm 1 m/S 753 mmHg 74%
    06:00 +2°C° 0,1 mm 1 m/S 753 mmHg 75%
    07:00 +2°C° 0,1 mm 1 m/S 753 mmHg 76%
    08:00 +3°C° 0,2 mm 1 m/S 753 mmHg 76%
    09:00 +3°C° 0,2 mm 1 m/S 754 mmHg 75%
    10:00 +3°C° 0,2 mm 1 m/S 754 mmHg 75%
    11:00 +4°C° 0,1 mm 1 m/S 754 mmHg 74%
    12:00 +5°C° 0,1 mm 1 m/S 754 mmHg 72%
    13:00 +5°C° 0,1 mm 1 m/S 754 mmHg 71%
    14:00 +5°C° 0 mm 1 m/S 754 mmHg 72%
    15:00 +5°C° 0 mm 1 m/S 754 mmHg 73%
    16:00 +4°C° 0 mm 2 m/S 754 mmHg 74%
    17:00 +4°C° 0 mm 2 m/S 755 mmHg 78%
    18:00 +3°C° 0 mm 2 m/S 755 mmHg 81%
    19:00 +2°C° 0 mm 2 m/S 755 mmHg 84%
    20:00 +1°C° 0 mm 2 m/S 756 mmHg 84%
    21:00 +1°C° 0 mm 2 m/S 756 mmHg 84%
    22:00 -1°C° 0 mm 2 m/S 757 mmHg 84%
    23:00 -1°C° 0 mm 2 m/S 757 mmHg 84%

    21 Februar, Mittwoch

    Zeit Temperatur Niederschläge Wind Luftdruck Luftfeuchtigkeit
    00:00 -2°C° 0 mm 2 m/S 757 mmHg 84%
    01:00 0°C° 0 mm 1 m/S 758 mmHg 85%
    02:00 0°C° 0 mm 1 m/S 758 mmHg 85%
    03:00 0°C° 0 mm 1 m/S 758 mmHg 85%
    04:00 -2°C° 0 mm 2 m/S 758 mmHg 85%
    05:00 -2°C° 0 mm 2 m/S 758 mmHg 85%
    06:00 -3°C° 0 mm 2 m/S 758 mmHg 85%
    07:00 -3°C° 0 mm 2 m/S 758 mmHg 86%
    08:00 -2°C° 0 mm 2 m/S 758 mmHg 80%
    09:00 -1°C° 0 mm 2 m/S 758 mmHg 75%
    10:00 +1°C° 0 mm 2 m/S 759 mmHg 70%
    11:00 +2°C° 0 mm 2 m/S 758 mmHg 66%
    12:00 +2°C° 0 mm 3 m/S 758 mmHg 62%
    13:00 +3°C° 0 mm 3 m/S 758 mmHg 57%
    14:00 +3°C° 0 mm 3 m/S 757 mmHg 59%
    15:00 +3°C° 0 mm 3 m/S 757 mmHg 60%
    16:00 +2°C° 0 mm 3 m/S 757 mmHg 61%
    17:00 +1°C° 0 mm 3 m/S 757 mmHg 68%
    18:00 0°C° 0 mm 3 m/S 757 mmHg 75%
    19:00 -1°C° 0 mm 3 m/S 757 mmHg 81%
    20:00 -1°C° 0 mm 2 m/S 757 mmHg 83%
    21:00 -2°C° 0 mm 2 m/S 757 mmHg 84%
    22:00 -2°C° 0 mm 2 m/S 758 mmHg 85%
    23:00 -2°C° 0 mm 2 m/S 758 mmHg 85%

    22 Februar, Donnerstag

    Zeit Temperatur Niederschläge Wind Luftdruck Luftfeuchtigkeit
    00:00 -3°C° 0 mm 2 m/S 757 mmHg 85%
    01:00 -3°C° 0 mm 2 m/S 757 mmHg 84%
    02:00 -3°C° 0 mm 2 m/S 757 mmHg 83%
    03:00 -3°C° 0 mm 2 m/S 757 mmHg 82%
    04:00 -4°C° 0 mm 3 m/S 756 mmHg 81%
    05:00 -4°C° 0 mm 3 m/S 756 mmHg 80%
    06:00 -4°C° 0 mm 3 m/S 756 mmHg 78%
    07:00 -4°C° 0 mm 3 m/S 756 mmHg 77%
    08:00 -4°C° 0 mm 4 m/S 756 mmHg 71%
    09:00 -3°C° 0 mm 4 m/S 756 mmHg 65%
    10:00 -4°C° 0 mm 5 m/S 756 mmHg 59%
    11:00 -2°C° 0 mm 5 m/S 756 mmHg 55%
    12:00 -1°C° 0 mm 5 m/S 756 mmHg 51%
    13:00 -1°C° 0 mm 6 m/S 755 mmHg 47%
    14:00 0°C° 0 mm 5 m/S 755 mmHg 48%
    15:00 0°C° 0 mm 5 m/S 755 mmHg 49%
    16:00 0°C° 0 mm 5 m/S 754 mmHg 49%
    17:00 -1°C° 0 mm 5 m/S 754 mmHg 54%
    18:00 -2°C° 0 mm 5 m/S 755 mmHg 59%
    19:00 -3°C° 0 mm 4 m/S 755 mmHg 64%
    20:00 -3°C° 0 mm 4 m/S 755 mmHg 65%
    21:00 -4°C° 0 mm 4 m/S 755 mmHg 66%
    22:00 -4°C° 0 mm 4 m/S 755 mmHg 68%
    23:00 -4°C° 0 mm 4 m/S 755 mmHg 68%

    23 Februar, Freitag

    Zeit Temperatur Niederschläge Wind Luftdruck Luftfeuchtigkeit
    00:00 -4°C° 0 mm 4 m/S 755 mmHg 68%
    01:00 -5°C° 0 mm 4 m/S 755 mmHg 69%
    02:00 -5°C° 0 mm 4 m/S 755 mmHg 69%
    03:00 -5°C° 0 mm 4 m/S 755 mmHg 69%
    04:00 -5°C° 0 mm 4 m/S 755 mmHg 70%
    05:00 -5°C° 0 mm 4 m/S 755 mmHg 71%
    06:00 -5°C° 0 mm 4 m/S 755 mmHg 72%
    07:00 -7°C° 0 mm 4 m/S 755 mmHg 73%
    08:00 -5°C° 0 mm 4 m/S 756 mmHg 69%
    09:00 -4°C° 0 mm 4 m/S 756 mmHg 65%
    10:00 -4°C° 0 mm 5 m/S 756 mmHg 61%
    11:00 -2°C° 0 mm 5 m/S 756 mmHg 59%
    12:00 -2°C° 0 mm 5 m/S 756 mmHg 56%
    13:00 -1°C° 0 mm 4 m/S 756 mmHg 53%
    14:00 -1°C° 0 mm 5 m/S 756 mmHg 53%
    15:00 -1°C° 0 mm 5 m/S 756 mmHg 52%
    16:00 -2°C° 0 mm 5 m/S 756 mmHg 52%
    17:00 -3°C° 0 mm 4 m/S 757 mmHg 54%
    18:00 -4°C° 0 mm 4 m/S 757 mmHg 55%
    19:00 -5°C° 0 mm 4 m/S 757 mmHg 57%
    20:00 -5°C° 0 mm 4 m/S 758 mmHg 55%
    21:00 -5°C° 0 mm 4 m/S 758 mmHg 53%
    22:00 -7°C° 0 mm 4 m/S 759 mmHg 51%
    23:00 -7°C° 0 mm 4 m/S 759 mmHg 53%
    Mehr zeigen